Bartlesville, OK

4:26 PM CDT on July 28, 2016 (GMT -0500)
Bartlesville Municipal

Weather History for KBVO - March, 2013

Change the Weather History Date:

Friday, March 15, 2013

  Actual Average Record
Temperature  
Mean Temperature 60 °F -  
Max Temperature 82 °F 62 °F 84 °F (2012)
Min Temperature 37 °F 36 °F 16 °F (1962)
Degree Days  
Heating Degree Days 6    
Growing Degree Days 10 (Base 50)    
Moisture  
Dew Point 41 °F    
Average Humidity 55    
Maximum Humidity 96    
Minimum Humidity 23    
Precipitation  
Precipitation 0.00 in - - ()
Sea Level Pressure  
Sea Level Pressure 29.89 in    
Wind  
Wind Speed 3 mph (SSW)    
Max Wind Speed 14 mph    
Max Gust Speed 21 mph    
Visibility 10 miles    
Events      
Averages and records for this station are not official NWS values.
T = Trace of Precipitation, MM = Missing Value Source: NWS Daily Summary

Daily Weather History Graph

Daily Weather History Graph

Search for Another Location

Airport or City:

Trip Planner

Search our weather history database for the weather conditions in past years. The results will help you decide how hot, cold, wet, or windy it might be!

Date:

Astronomy

Mar. 15, 2013 Rise Set
Actual Time 7:34 AM CDT 7:31 PM CDT
Civil Twilight 7:08 AM CDT 7:57 PM CDT
Nautical Twilight 6:38 AM CDT 8:27 PM CDT
Astronomical Twilight 6:08 AM CDT 8:57 PM CDT
Moon 9:32 AM CDT (3/15) 11:39 PM CDT (3/15)
Length of Visible Light 12h 48m
Length of Day
11h 57m
Waxing Crescent, 15% of the Moon is Illuminated
Mar 15
Waxing Crescent
Mar 19
First Quarter
Mar 27
Full
Apr 2
Last Quarter
Apr 10
New

Hourly Weather History & Observations

Time (CDT) Temp. Dew Point Humidity Pressure Visibility Wind Dir Wind Speed Gust Speed Precip Events Conditions
12:53 AM 44.1 °F 39.0 °F 82% 30.09 in 10.0 mi Calm Calm - N/A   Clear
1:53 AM 42.1 °F 37.9 °F 85% 30.07 in 10.0 mi Calm Calm - N/A   Clear
2:53 AM 42.1 °F 37.9 °F 85% 30.06 in 10.0 mi Calm Calm - N/A   Clear
3:53 AM 39.0 °F 37.0 °F 93% 30.04 in 10.0 mi Calm Calm - N/A   Clear
4:53 AM 37.9 °F 36.0 °F 93% 30.02 in 10.0 mi Calm Calm - N/A   Clear
5:53 AM 37.0 °F 35.1 °F 93% 30.01 in 10.0 mi Calm Calm - N/A   Clear
6:53 AM 37.0 °F 35.1 °F 93% 30.00 in 10.0 mi Calm Calm - N/A   Clear
7:53 AM 37.0 °F 36.0 °F 96% 30.00 in 9.0 mi Calm Calm - N/A   Clear
8:53 AM 48.9 °F 43.0 °F 80% 29.99 in 10.0 mi Calm Calm - N/A   Clear
9:53 AM 59.0 °F 46.0 °F 62% 29.96 in 10.0 mi SSE 3.5 mph - N/A   Clear
10:53 AM 69.1 °F 43.0 °F 39% 29.94 in 10.0 mi SSW 13.8 mph 19.6 mph N/A   Clear
11:53 AM 72.0 °F 43.0 °F 35% 29.92 in 10.0 mi SW 9.2 mph 18.4 mph N/A   Clear
12:53 PM 75.9 °F 42.1 °F 30% 29.88 in 10.0 mi SSW 6.9 mph - N/A   Clear
1:53 PM 80.1 °F 42.1 °F 26% 29.86 in 10.0 mi SSW 10.4 mph 20.7 mph N/A   Clear
2:53 PM 81.0 °F 42.1 °F 25% 29.81 in 10.0 mi WSW 13.8 mph 20.7 mph N/A   Clear
3:53 PM 82.9 °F 41.0 °F 23% 29.79 in 10.0 mi WSW 10.4 mph 18.4 mph N/A   Clear
4:53 PM 81.0 °F 41.0 °F 24% 29.76 in 10.0 mi SSW 10.4 mph 17.3 mph N/A   Clear
5:53 PM 81.0 °F 39.9 °F 23% 29.75 in 10.0 mi WSW 9.2 mph 18.4 mph N/A   Clear
6:53 PM 79.0 °F 39.0 °F 24% 29.74 in 10.0 mi SW 12.7 mph - N/A   Clear
7:53 PM 73.0 °F 39.9 °F 30% 29.74 in 10.0 mi SW 4.6 mph - N/A   Clear
8:53 PM 70.0 °F 43.0 °F 38% 29.73 in 10.0 mi South 5.8 mph - N/A   Clear
9:53 PM 68.0 °F 43.0 °F 40% 29.72 in 10.0 mi South 5.8 mph - N/A   Clear
10:53 PM 66.9 °F 45.0 °F 45% 29.72 in 10.0 mi SSW 6.9 mph - N/A   Clear
11:53 PM 66.9 °F 45.0 °F 45% 29.71 in 10.0 mi SSW 8.1 mph - N/A   Clear